Regional Weather Roundup
Issued by NWS Upton, NY

Current Version | Previous Version | Graphics & Text | Print | Product List | Glossary Off
Versions: 1 2 3 4 5 6 7 8 9 10 11 12 13 14 15 16 17 18 19 20 21 22 23 24 25 26 27 28 29 30 31 32 33 34 35 36 37 38 39 40 41 42 43 44 45 46 47 48 49 50
000 ASUS41 KOKX 230105 RWROKX REGIONAL WEATHER ROUNDUP NATIONAL WEATHER SERVICE NEW YORK NY 800 PM EST SAT NOV 22 2014 NOTE: "FAIR" INDICATES FEW OR NO CLOUDS BELOW 12,000 FEET WITH NO SIGNIFICANT WEATHER AND/OR OBSTRUCTIONS TO VISIBILITY. NYZ071-072-176-178-NJZ106-104-230200- NEW YORK CITY METRO AREA CITY SKY/WX TMP DP RH WIND PRES REMARKS CENTRAL PARK MOCLDY 44 18 35 W8G17 30.24F LAGUARDIA APRT MOCLDY 43 20 39 SW10 30.23S KENNEDY INTL CLOUDY 44 21 40 SW20G26 30.25F NEWARK/LIBERTY CLOUDY 43 18 36 SW16G23 30.23F BRNX BOT. GARD N/A N/A N/A N/A SW7 30.25R TETERBORO CLOUDY 43 17 35 SW8 30.22F $$ NYZ177-179-078>081-230200- LONG ISLAND NEW YORK CITY SKY/WX TMP DP RH WIND PRES REMARKS FARMINGDALE CLOUDY 45 21 38 SW13 30.24F ISLIP CLOUDY 43 23 45 SW15G21 30.22F SHIRLEY CLOUDY 44 26 49 SW13G18 30.24F WESTHAMPTON CLOUDY 45 27 49 W21 30.23F MONTAUK POINT N/A 47 33 58 SW12G22 30.22S $$ NYZ052-065-067-230200- HUDSON VALLEY CITY SKY/WX TMP DP RH WIND PRES REMARKS WHITE PLAINS CLOUDY 41 17 38 W3 30.20F NEWBURGH CLOUDY 41 16 36 W14 30.18F MONTGOMERY CLOUDY 41 15 35 SW14 30.17F POUGHKEEPSIE CLOUDY 43 15 32 SW9 30.18F ALBANY LGT RAIN 38 22 52 S9 30.09S WCI 31 $$ NJZ001-105-106-008-010-013-015-019>022-104-230200- NEW JERSEY CITY SKY/WX TMP DP RH WIND PRES REMARKS NEWARK/LIBERTY CLOUDY 43 18 36 SW16G23 30.23F TETERBORO CLOUDY 43 17 35 SW8 30.22F CALDWELL MOCLDY 41 17 38 W7 30.23F MORRISTOWN CLEAR 41 18 38 W8G24 30.23F SOMERVILLE CLOUDY 42 18 37 MISG 30.24F SUSSEX MOCLDY 39 17 41 SW7 30.19F WCI 34 ANDOVER N/A 38 18 44 SW6 30.21S WCI 33 TRENTON CLOUDY 43 18 36 SW8G18 30.27S MILLVILLE CLOUDY 42 24 49 SW8 30.31F ATLANTIC CITY CLOUDY 42 23 46 SW9 30.31S WRIGHTSTOWN CLOUDY 42 22 46 SW10 30.26S TOMS RIVER CLOUDY 43 21 42 W5 30.29S BELMAR PTCLDY 41 19 42 SW13G18 30.26S $$ PAZ047>061-062-071-230200- EASTERN PENNSYLVANIA CITY SKY/WX TMP DP RH WIND PRES REMARKS PHILADELPHIA CLOUDY 44 22 41 SW12 30.30F ALLENTOWN CLOUDY 41 18 39 SW8 30.25S SCRANTON CLOUDY 38 17 42 SW6 30.17F WCI 33 $$ CTZ002-004>006-009-010-012-RIZ004-006-007-MAZ004-011-015-230200- SOUTHERN NEW ENGLAND IN CT CITY SKY/WX TMP DP RH WIND PRES REMARKS BRADLEY INTL MOCLDY 41 13 31 S13 30.13F HARTFORD PTCLDY 41 17 38 S12G20 30.17F DANBURY CLOUDY 40 16 37 SW9 30.20F WCI 34 WTRBRY/OXFORD CLOUDY 37 16 41 SW8G17 30.17F WCI 31 BRIDGEPORT CLOUDY 45 25 45 SW18G25 30.20F MERIDEN MOCLDY 42 17 36 SW8G17 30.18F NEW HAVEN CLOUDY 47 25 42 SW13G25 30.20F CHESTER CLOUDY 43 23 45 SW12G21 30.18F GROTON CLOUDY 45 29 53 SW17G29 30.18F WILLIMANTIC CLOUDY 42 19 39 SW7 30.16F IN RI CITY SKY/WX TMP DP RH WIND PRES REMARKS PROVIDENCE MOCLDY 42 24 49 SW15G21 30.14F BLOCK ISLAND CLOUDY 46 32 57 W26G35 30.19S WESTERLY CLOUDY 45 27 49 SW16G26 30.19F IN MA CITY SKY/WX TMP DP RH WIND PRES REMARKS BOSTON PTCLDY 40 19 43 SW22G32 30.08F WCI 30 WORCESTER CLEAR 36 13 38 SW28G38 30.05F WCI 23 WESTFIELD FAIR 39 12 33 S13 30.10F WCI 31 PROVINCETOWN CLOUDY 45 30 57 SW30G39 30.11F NANTUCKET CLOUDY 49 38 65 SW30G36 30.19F HAZE $$ ANZ330-335-338-340-345-350-353-355-230200- COASTAL MARINE OBSERVATIONS STATION/POSITION TIME SKY/WX TEMP WIND PRES VSBY WAVE AIR SEA DIR/SP/G HT/PER (UTC) (F) (DEG/KT/KT) (MB) (MI) (FT/S) NY HARB ENTRANCE 0100 46 56 240/ 21/ 25 1024.3 4/ 5 4S FIRE IS 0100 52 N/A 7/ 6 20S FIRE ISLAND 0100 48 54 240/ 23/ 29 1023.8 6/ 6 23SW MTP 0100 N/A 9/ 7 HUDSON CANYON 0100 51 58 240/ 23/ 29 1024.8 8/ 7 EXECUTION ROCKS 0100 45 47 230/ 14/ 17 N/A WESTERN LI SOUND 0100 45 220/ 16/ 19 N/A 2/ 3 CENTRAL LI SOUND 0000 45 50 230/ 21/ 25 N/A 3/ 4 EASTERN LI SOUND 0000 46 52 230/ 19/ 25 N/A ROBBINS REEF 0100 43 230/ 14/ 17 1022.5 $$ >>>>>>>>>>>>>>>>>>>>>>>>>>>> KEY <<<<<<<<<<<<<<<<<<<<<<<<<<< > < > SKY/WX - SKY CONDITION/PRESENT WEATHER < > TMP - TEMPERATURE IN FAHRENHEIT < > DP - DEWPOINT IN FAHRENHEIT < > RH - RELATIVE HUMIDITY IN PERCENT < > WIND - DIRECTION AND SPEED IN MPH < > PRES - MEAN SEA LEVEL PRESSURE IN INCHES OF HG < > WCI - WIND CHILL INDEX < > VSB - VISIBILITY IN MILES < > HX - HEAT INDEX < > TC - TEMPERATURE IN CELSIUS < > VRB - VARIABLE WIND DIRECTION < > < >>>>>>>>>>>>>>>>>>>>>>>>>>>> KEY <<<<<<<<<<<<<<<<<<<<<<<<<<<

USA.gov is the U.S. government's official web portal to all federal, state and local government web resources and services.